Simultaneous Nadir Overpasses (SNOs) Predictions

Prediction of SNOs between AQUA and GOES-15 Satellite Orbit:

Table of predicted SNOs for the next 14.0 days since TLE Epoch: 6/29/2025
Index Date Time (AQUA) AQUA Lat,Lon GOES-15 Lat,Lon Distance(km) Time Diff (sec)
1 07/01/2025 10:30:34 0.81, 63.47 0.32, 61.24 254.44 80
2 07/01/2025 22:49:42 0.18, 58.85 -0.33, 61.29 277.94 80
3 07/03/2025 22:29:21 -0.85, 63.84 -0.33, 61.29 288.65 80
4 07/04/2025 10:48:39 -0.12, 59.17 0.34, 61.24 236.66 80
5 07/06/2025 10:28:19 0.99, 64.14 0.34, 61.25 329.43 80
6 07/06/2025 22:47:28 -0.00, 59.51 -0.36, 61.30 203.02 80
7 07/08/2025 22:27:07 -1.07, 64.50 -0.36, 61.32 362.11 80
8 07/09/2025 10:46:24 0.06, 59.84 0.38, 61.28 163.77 80
9 07/11/2025 10:26:03 1.15, 64.82 0.38, 61.30 401.04 80
10 07/11/2025 22:45:12 -0.17, 60.19 -0.39, 61.35 131.33 80
